Temp
11 11 11 11 11 11 11 11 12 11 11 10 10 11 12 11 10 10 8 8 10 10 9 9 9 9 9 9 9 9 9 9 9 10 10 9 9 9 9 9 9 10 10 10 10 10 10 10 9
12 12 12 13 13 12 11 11 12 12 12 12 11 11 11 11 11 11 10 10 9 9 10 10 9 9 9 9 9 9 9 10 10 10 9 9 9 9 9 10 10 10 10 10 10 10 10 10 10
13 13 13 13 13 12 11 13 12 12 12 12 12 11 12 11 10 10 10 11 10 9 9 9 9 9 9 9 9 9 10 10 10 9 9 9 9 10 10 10 10 10 10 10 10 10 10 10 10
12 13 13 14 13 13 13 12 12 11 11 11 12 12 10 10 11 11 11 10 10 10 10 9 9 9 9 10 9 9 10 10 9 9 9 9 10 10 10 10 10 10 10 10 10 10 10 10 9
13 13 13 14 14 13 13 12 12 13 12 11 12 11 11 9 10 10 10 10 10 10 10 10 10 9 9 9 9 9 10 9 9 9 9 9 10 10 10 10 10 10 10 10 10 10 10 10 10
13 14 14 13 14 12 13 13 13 13 12 12 12 12 10 10 10 11 10 10 10 10 10 10 10 9 9 9 9 10 10 9 10 10 10 10 10 10 10 10 10 10 10 10 10 10 10 10 10
14 14 14 14 13 13 13 13 14 13 12 11 12 13 10 10 10 10 10 10 9 10 10 10 10 9 9 9 9 9 10 10 10 10 10 10 10 10 9 9 9 10 10 10 10 10 10 10 10
14 14 14 14 14 13 13 13 13 13 12 11 11 13 11 9 9 9 10 10 10 9 9 10 10 9 9 9 9 9 10 10 10 10 10 10 10 9 9 9 9 9 10 10 10 10 10 10 10
14 14 14 14 14 13 13 14 12 12 13 10 11 12 10 9 9 9 10 10 9 9 9 10 10 10 9 9 9 10 10 10 10 10 10 10 10 9 9 9 9 9 8 9 10 10 10 10 10
14 15 15 14 14 14 13 14 13 13 12 11 11 10 10 10 9 10 10 10 9 9 9 9 9 9 8 9 10 10 10 10 10 10 10 10 10 10 9 9 10 8 9 9 10 10 10 11 11
14 14 14 14 14 14 13 13 13 13 11 12 13 11 10 9 10 9 10 9 10 9 10 10 9 9 9 10 10 10 10 10 10 10 10 10 10 10 9 9 10 10 11 10 10 10 10 11 11
13 14 14 14 14 13 13 13 12 12 12 11 12 12 10 10 9 10 10 10 9 9 9 9 9 9 9 10 10 10 10 10 10 10 10 11 11 10 10 10 11 10 11 10 10 10 11 11 11
14 14 14 14 14 13 13 13 13 12 12 11 11 11 9 9 9 10 10 10 9 9 9 9 9 9 9 9 10 10 10 10 10 10 10 10 11 11 10 10 11 11 10 10 11 11 11 11 11
13 14 14 14 14 13 13 13 13 12 11 10 11 10 9 9 9 9 10 10 9 9 9 9 9 9 10 10 10 10 10 10 10 11 10 10 11 11 11 11 11 11 10 9 10 10 12 12 12
14 14 14 13 14 13 13 12 12 12 11 10 11 10 9 9 9 9 9 10 10 10 9 9 10 9 9 10 10 9 10 11 11 11 10 10 10 11 11 11 11 11 11 11 11 11 12 12 12
15 15 13 13 14 13 13 12 12 12 12 12 11 10 9 9 9 9 9 9 9 9 10 9 11 10 10 10 10 10 11 10 10 11 10 10 11 11 11 12 11 11 12 12 12 12 12 12 12
15 15 15 14 14 13 13 12 12 12 12 13 12 11 10 9 9 9 9 9 9 9 10 10 10 10 10 10 10 10 10 11 11 11 10 10 11 11 11 12 11 12 12 12 12 12 12 12 12
15 15 15 15 15 14 14 14 13 13 13 13 13 12 10 10 10 9 9 9 9 9 9 10 10 9 10 10 10 10 11 11 11 11 11 10 11 11 11 11 12 12 12 12 12 13 13 12 13
15 16 16 16 16 15 15 14 15 14 13 12 13 13 12 10 10 9 9 10 10 9 9 10 10 10 10 10 10 10 11 11 11 11 11 10 11 11 11 11 12 12 12 12 12 13 13 13 13
17 17 16 16 16 15 15 15 14 14 15 15 14 13 13 11 10 10 10 10 11 11 11 11 10 10 10 10 10 10 10 10 11 11 11 11 11 11 11 11 11 12 12 12 12 12 13 13 13
16 16 16 16 16 15 16 16 15 14 14 14 13 13 12 12 12 11 11 11 11 12 11 11 11 10 10 9 10 10 10 10 10 12 11 11 11 11 11 11 11 12 13 12 12 12 13 13 12
16 16 16 16 16 16 16 16 17 15 14 14 13 12 11 11 11 11 11 11 11 11 12 11 11 11 10 10 10 10 10 10 11 11 11 11 11 11 11 11 12 12 12 13 12 12 12 13 13
15 15 16 16 16 16 17 16 17 17 14 13 13 12 11 11 11 11 12 11 11 11 11 11 11 11 11 11 11 11 11 10 10 11 11 11 11 11 11 11 12 12 12 12 12 12 12 12 13
15 15 16 16 16 14 17 16 17 16 16 14 13 13 12 11 11 10 11 12 13 12 11 11 10 10 11 12 11 11 11 11 11 11 12 12 11 11 11 11 11 12 12 12 12 12 12 12 12
15 15 14 13 11 11 16 16 15 15 14 14 13 12 11 11 12 13 12 10 11 12 12 12 11 10 9 9 10 11 11 11 11 11 11 12 12 12 11 11 11 11 12 12 12 13 13 12 12
14 14 14 12 10 13 15 13 11 13 14 13 12 11 11 11 12 12 10 10 10 11 11 11 12 12 11 10 9 9 10 10 11 11 11 12 12 12 12 11 11 11 11 11 12 13 13 13 13
14 14 14 14 14 13 12 10 12 11 11 11 11 10 10 10 10 10 9 9 10 9 11 12 13 12 12 12 10 10 10 9 10 10 11 11 11 12 12 11 11 11 11 11 12 12 13 13 12
14 14 14 14 10 10 12 12 10 11 11 10 10 10 10 10 10 10 11 12 11 12 12 11 12 11 13 13 11 12 12 11 10 9 10 11 11 11 11 12 12 12 11 12 12 12 12 12 13
14 13 13 13 13 10 7 9 10 10 11 11 11 11 10 10 10 9 9 9 9 10 10 9 9 10 11 11 11 12 12 11 11 10 10 9 11 11 12 11 12 12 12 12 12 12 12 12 12
13 13 13 13 13 12 10 9 10 11 11 11 11 10 10 10 10 9 9 9 9 9 9 10 11 11 11 11 11 11 12 12 11 11 10 9 9 10 11 11 12 12 12 12 12 12 12 12 12
Height
3167 3168 3169 3169 3177 3175 3173 3176 3176 3175 3176 3176 3176 3176 3176 3175 3176 3179 3181 3182 3184 3189 3191 3194 3195 3197 3198 3200 3201 3203 3204 3204 3205 3207 3208 3208 3209 3209 3208 3208 3207 3206 3205 3205 3205 3205 3205 3205 3205
3169 3170 3174 3172 3176 3173 3178 3176 3176 3177 3178 3178 3178 3178 3178 3177 3176 3176 3180 3185 3188 3191 3193 3196 3198 3200 3201 3201 3203 3205 3206 3207 3209 3210 3210 3211 3211 3211 3210 3210 3209 3208 3208 3207 3207 3207 3208 3208 3208
3175 3175 3175 3174 3175 3174 3178 3176 3177 3178 3180 3180 3178 3180 3179 3178 3180 3181 3185 3186 3188 3192 3194 3197 3199 3201 3203 3204 3206 3208 3209 3210 3212 3212 3213 3213 3213 3213 3213 3212 3212 3211 3211 3211 3211 3211 3211 3211 3211
3175 3176 3177 3177 3177 3177 3177 3179 3178 3178 3181 3183 3180 3180 3182 3184 3184 3185 3186 3187 3189 3192 3194 3198 3201 3203 3204 3205 3208 3210 3212 3213 3214 3215 3216 3216 3215 3215 3215 3215 3215 3214 3214 3214 3214 3214 3215 3214 3213
3175 3175 3176 3176 3179 3179 3178 3179 3179 3179 3180 3181 3184 3182 3182 3185 3187 3187 3188 3190 3192 3193 3195 3198 3201 3203 3205 3206 3209 3212 3214 3216 3217 3218 3218 3218 3218 3218 3218 3218 3218 3218 3218 3218 3218 3218 3218 3217 3217
3177 3176 3177 3179 3180 3181 3180 3181 3181 3182 3182 3182 3183 3182 3184 3189 3191 3190 3191 3192 3193 3195 3195 3197 3200 3203 3206 3208 3211 3214 3216 3217 3219 3220 3220 3220 3221 3221 3221 3221 3222 3222 3222 3222 3222 3221 3220 3221 3222
3179 3176 3177 3179 3182 3183 3183 3184 3184 3184 3184 3183 3185 3184 3184 3188 3191 3190 3191 3193 3194 3196 3197 3198 3200 3203 3207 3211 3213 3216 3219 3221 3222 3223 3222 3223 3224 3224 3223 3225 3225 3226 3226 3226 3226 3226 3226 3227 3226
3180 3179 3177 3180 3182 3183 3184 3185 3185 3184 3184 3185 3186 3186 3184 3187 3191 3192 3193 3195 3196 3198 3199 3200 3202 3205 3208 3212 3214 3218 3221 3223 3224 3225 3225 3225 3227 3226 3226 3227 3228 3230 3230 3230 3231 3231 3230 3231 3230
3179 3180 3179 3181 3183 3185 3185 3185 3186 3186 3185 3185 3185 3187 3187 3189 3191 3193 3195 3197 3198 3198 3200 3201 3203 3206 3210 3214 3217 3220 3222 3224 3225 3226 3227 3228 3228 3228 3229 3230 3231 3232 3233 3233 3234 3234 3235 3235 3235
3180 3181 3181 3182 3184 3185 3185 3185 3185 3186 3185 3186 3185 3187 3188 3191 3194 3196 3198 3198 3199 3200 3202 3204 3205 3207 3211 3216 3219 3222 3224 3226 3228 3229 3229 3230 3231 3231 3232 3233 3233 3235 3235 3235 3236 3238 3239 3240 3240
3182 3182 3183 3183 3185 3185 3186 3183 3184 3186 3186 3187 3187 3186 3189 3193 3196 3200 3202 3201 3203 3205 3205 3205 3207 3211 3215 3219 3221 3224 3226 3227 3229 3230 3231 3232 3233 3233 3234 3235 3236 3238 3238 3239 3240 3241 3241 3242 3243
3182 3182 3184 3186 3187 3188 3188 3188 3187 3188 3189 3190 3190 3191 3191 3194 3198 3202 3204 3205 3205 3207 3209 3209 3211 3214 3217 3221 3223 3225 3227 3229 3231 3232 3233 3234 3235 3235 3235 3236 3239 3240 3241 3243 3244 3244 3245 3246 3245
3182 3183 3186 3188 3189 3189 3189 3189 3189 3190 3190 3191 3191 3192 3193 3196 3199 3202 3204 3206 3208 3210 3213 3214 3216 3219 3220 3222 3224 3227 3228 3230 3232 3233 3234 3236 3237 3237 3237 3239 3242 3243 3244 3246 3247 3248 3248 3249 3249
3184 3185 3187 3190 3191 3190 3190 3190 3191 3191 3190 3191 3193 3192 3196 3199 3201 3202 3204 3207 3210 3213 3215 3218 3219 3221 3223 3224 3226 3229 3230 3231 3233 3233 3235 3237 3237 3238 3239 3242 3244 3245 3245 3247 3248 3249 3250 3250 3250
3187 3186 3187 3190 3191 3192 3190 3192 3191 3191 3193 3194 3195 3197 3198 3200 3201 3203 3206 3207 3212 3214 3215 3219 3221 3222 3225 3227 3228 3230 3231 3233 3233 3234 3235 3236 3238 3239 3241 3243 3244 3246 3246 3246 3248 3250 3251 3252 3252
3186 3187 3187 3188 3190 3191 3192 3191 3191 3192 3193 3193 3195 3197 3198 3201 3203 3205 3206 3207 3210 3213 3216 3218 3220 3223 3225 3226 3229 3231 3231 3234 3235 3235 3235 3236 3238 3241 3241 3243 3245 3246 3247 3247 3249 3251 3252 3252 3252
3187 3187 3186 3188 3189 3190 3191 3191 3191 3192 3193 3194 3195 3196 3198 3201 3205 3207 3208 3209 3211 3213 3216 3218 3220 3221 3223 3225 3227 3229 3230 3232 3235 3235 3236 3237 3238 3239 3241 3243 3245 3246 3247 3248 3250 3252 3253 3253 3253
3184 3186 3186 3186 3188 3188 3189 3189 3189 3190 3191 3194 3194 3196 3198 3200 3204 3206 3207 3208 3210 3213 3215 3217 3219 3221 3222 3223 3224 3227 3229 3231 3233 3235 3236 3237 3239 3239 3240 3242 3244 3246 3246 3248 3249 3251 3252 3253 3254
3185 3185 3184 3184 3186 3186 3187 3188 3187 3188 3191 3193 3194 3195 3197 3200 3204 3206 3207 3208 3210 3211 3213 3215 3218 3220 3222 3223 3223 3224 3227 3230 3232 3234 3235 3236 3237 3238 3239 3241 3242 3244 3245 3246 3248 3252 3252 3252 3252
3181 3182 3183 3184 3185 3185 3186 3186 3186 3187 3187 3189 3191 3194 3197 3199 3202 3205 3206 3206 3208 3210 3212 3213 3216 3219 3221 3222 3223 3224 3225 3228 3230 3233 3233 3234 3235 3236 3238 3239 3239 3240 3242 3244 3246 3249 3250 3250 3250
3181 3183 3183 3183 3184 3184 3185 3185 3185 3186 3186 3189 3192 3195 3198 3200 3203 3206 3208 3210 3210 3211 3212 3213 3215 3217 3219 3220 3221 3222 3222 3224 3225 3229 3232 3232 3233 3234 3235 3237 3237 3238 3240 3243 3243 3244 3245 3247 3247
3181 3182 3183 3182 3183 3182 3183 3181 3181 3180 3181 3186 3190 3193 3198 3201 3205 3208 3210 3211 3213 3213 3212 3213 3214 3217 3218 3218 3218 3219 3221 3223 3225 3227 3229 3230 3231 3231 3232 3233 3234 3235 3237 3238 3240 3241 3241 3242 3244
3180 3180 3180 3180 3181 3179 3178 3179 3174 3174 3180 3184 3186 3191 3195 3198 3203 3207 3209 3211 3212 3212 3212 3213 3213 3215 3217 3218 3219 3218 3218 3220 3222 3223 3224 3225 3227 3228 3229 3230 3232 3232 3233 3235 3236 3237 3238 3239 3240
3178 3178 3177 3177 3176 3176 3169 3175 3173 3172 3172 3178 3182 3185 3188 3193 3198 3206 3205 3209 3211 3213 3212 3211 3212 3214 3215 3216 3218 3219 3219 3219 3218 3219 3221 3222 3223 3224 3225 3226 3227 3229 3230 3231 3232 3233 3233 3234 3234
3176 3175 3174 3177 3178 3175 3170 3172 3172 3170 3173 3178 3180 3182 3186 3193 3193 3198 3198 3206 3210 3210 3211 3212 3212 3211 3212 3213 3214 3215 3217 3219 3219 3218 3216 3217 3219 3220 3221 3222 3222 3223 3225 3227 3227 3228 3229 3229 3229
3176 3175 3175 3178 3179 3172 3171 3174 3178 3176 3178 3181 3184 3187 3189 3191 3192 3189 3199 3206 3209 3207 3207 3207 3208 3209 3209 3209 3210 3212 3213 3214 3215 3215 3215 3213 3212 3215 3216 3217 3218 3218 3219 3220 3221 3222 3223 3224 3224
3175 3176 3176 3175 3173 3174 3179 3181 3184 3184 3182 3184 3185 3187 3189 3191 3193 3194 3197 3203 3205 3204 3201 3203 3204 3204 3204 3204 3206 3206 3207 3208 3210 3211 3212 3211 3211 3211 3211 3212 3212 3213 3214 3214 3215 3215 3217 3218 3219
3174 3176 3175 3174 3177 3181 3184 3184 3190 3190 3188 3189 3189 3189 3191 3192 3194 3196 3199 3201 3199 3198 3199 3200 3201 3201 3200 3197 3197 3199 3202 3202 3203 3204 3205 3206 3206 3207 3208 3207 3206 3207 3208 3209 3209 3209 3210 3211 3212
3175 3174 3175 3176 3177 3177 3186 3197 3197 3194 3194 3194 3194 3195 3195 3194 3195 3195 3196 3197 3198 3198 3196 3195 3196 3195 3194 3194 3196 3197 3197 3196 3196 3195 3198 3199 3200 3200 3200 3202 3202 3201 3201 3202 3202 3203 3204 3204 3206
3174 3175 3175 3176 3180 3180 3184 3200 3199 3196 3194 3192 3191 3190 3190 3190 3191 3192 3192 3193 3192 3193 3194 3195 3194 3192 3191 3189 3189 3190 3191 3190 3191 3190 3190 3191 3191 3193 3193 3193 3194 3195 3195 3195 3195 3196 3198 3198 3198
Wind_Speed
9 6 12 11 10 14 24 16 25 21 18 20 16 21 12 14 12 17 24 24 28 24 24 24 24 22 20 21 22 21 21 23 23 22 21 19 18 17 17 17 16 16 16 16 16 15 16 17 17
14 12 16 16 16 27 20 26 21 10 13 16 15 13 8 13 7 33 27 26 22 23 22 22 22 20 19 19 19 20 21 21 20 19 18 17 16 15 15 16 16 16 18 17 17 18 18 17 17
19 15 15 8 9 23 21 5 16 16 12 8 14 16 13 23 26 30 25 25 20 20 21 21 19 19 18 18 17 21 20 20 19 18 17 15 16 16 17 18 19 20 20 19 19 19 19 20 20
10 7 22 21 22 13 12 12 10 15 10 11 14 25 26 21 22 25 24 22 19 18 20 20 19 18 19 18 19 23 21 19 17 16 15 15 18 18 20 21 21 21 21 20 21 21 22 23 25
7 17 20 17 18 15 13 12 11 7 5 7 11 25 29 26 23 22 21 21 17 17 19 21 21 20 21 20 21 22 21 18 16 15 15 17 19 21 23 22 22 22 21 21 22 24 26 28 29
9 18 25 23 14 17 16 13 6 9 10 10 8 25 28 26 23 22 20 18 17 14 17 21 23 23 23 22 24 22 21 18 15 14 16 18 20 23 24 24 24 23 23 24 25 29 32 33 34
20 24 24 21 19 13 15 8 3 9 10 11 7 19 28 22 20 18 17 17 16 13 15 19 24 25 25 24 26 23 18 16 14 14 17 20 23 24 26 26 27 26 29 31 32 32 33 33 34
21 23 23 24 21 21 16 11 3 5 9 11 6 10 23 25 18 14 17 15 15 14 17 19 22 25 26 26 27 23 19 15 13 14 16 21 23 25 26 27 28 32 28 31 30 31 32 32 33
16 23 21 20 17 21 15 10 7 3 4 7 4 9 22 21 17 15 18 17 15 18 17 17 21 26 26 26 27 23 19 14 11 13 16 20 23 24 26 26 28 27 30 27 28 28 29 29 30
20 22 14 13 13 13 13 6 6 4 2 7 6 19 19 19 15 18 14 13 15 17 19 13 20 26 30 30 26 21 17 13 10 12 14 20 22 23 23 24 26 25 28 26 27 27 27 27 27
19 20 15 15 11 10 13 11 4 0 4 3 8 22 21 19 17 10 7 14 16 19 20 20 24 29 30 29 25 19 17 13 10 10 14 18 22 22 23 22 22 23 23 25 25 25 26 26 26
15 17 18 22 14 15 12 13 9 1 3 5 4 18 22 18 13 8 9 12 18 21 19 21 26 29 31 28 21 17 14 11 10 13 11 13 20 21 21 20 20 22 22 23 23 23 22 24 23
20 14 11 12 15 11 10 8 5 7 1 5 7 12 18 17 11 12 8 14 18 18 19 19 22 28 28 25 21 16 14 12 10 12 11 10 15 18 17 16 17 19 19 21 20 19 19 19 18
13 9 8 10 12 9 6 6 3 2 3 6 11 13 15 15 13 10 5 10 18 12 10 16 19 22 22 19 18 14 13 13 10 10 10 8 10 14 16 14 15 21 22 22 20 19 18 16 17
7 4 6 8 14 13 8 8 6 1 5 9 15 18 18 13 10 11 5 6 8 6 6 8 21 20 19 18 17 15 16 14 11 10 9 9 8 13 16 14 17 21 25 25 23 20 18 16 13
6 1 6 8 10 11 11 13 10 6 3 12 16 18 17 16 11 12 10 6 11 7 2 9 10 15 17 16 14 17 15 14 11 10 9 8 10 11 16 15 18 21 23 24 22 21 18 15 13
6 5 5 10 13 6 15 18 17 12 8 7 15 17 16 17 17 14 16 15 13 9 8 5 7 10 11 14 18 18 18 14 13 12 12 11 10 11 13 15 18 21 23 22 21 20 16 13 11
17 10 7 6 8 14 7 11 15 12 10 5 5 11 15 17 16 17 15 16 16 17 13 7 5 8 11 16 17 18 19 18 15 16 13 12 12 13 12 15 19 22 23 22 22 21 17 13 10
7 5 9 2 4 9 13 13 12 11 12 14 7 5 9 14 12 15 15 13 14 15 14 11 6 7 11 16 17 18 17 16 12 15 14 14 14 14 13 15 19 22 24 23 22 19 18 18 15
2 7 11 4 5 7 7 14 20 17 11 6 6 8 6 11 12 12 13 9 9 9 8 7 8 8 11 14 16 16 17 16 15 15 16 16 16 15 14 15 17 22 25 24 21 21 21 20 18
4 10 6 5 9 12 7 11 20 23 17 18 20 10 9 7 7 9 7 6 6 5 4 4 6 7 9 13 17 18 18 20 19 16 16 16 18 18 17 16 17 18 21 23 23 23 24 23 22
2 2 3 7 8 7 11 6 14 26 29 23 27 24 13 15 12 11 13 10 10 7 3 3 4 6 8 13 15 16 15 17 15 16 15 16 20 20 19 18 18 17 16 20 24 25 25 25 24
6 8 9 8 7 16 21 10 16 8 33 32 33 30 21 25 23 18 12 15 8 1 1 2 4 5 7 10 10 13 16 16 17 19 18 17 22 23 23 21 19 17 17 17 20 24 25 25 25
7 11 13 14 9 5 12 13 3 9 34 35 26 33 31 31 23 15 16 16 5 5 1 3 1 3 7 9 9 12 14 15 19 20 19 19 20 22 24 23 21 19 18 18 18 19 21 22 25
4 4 3 1 1 8 12 2 6 10 27 32 22 32 30 24 16 6 14 26 20 9 11 7 8 8 6 8 8 10 11 15 18 18 19 17 18 21 22 24 23 22 19 18 19 17 17 18 20
3 4 3 2 1 6 7 6 8 12 20 15 16 18 18 18 15 20 21 23 23 6 10 10 16 15 13 16 16 12 12 15 18 21 23 20 17 19 21 25 25 25 24 22 22 20 17 17 17
6 4 3 4 4 4 7 19 24 34 35 32 30 27 25 22 21 21 17 22 23 16 18 18 17 15 17 13 21 23 25 23 20 21 23 24 22 19 23 26 28 27 26 26 25 23 20 20 18
3 2 1 1 2 4 7 9 23 32 34 31 28 24 21 19 17 19 19 17 18 15 12 11 10 20 22 24 21 22 24 21 22 24 24 26 25 26 25 26 28 28 29 29 29 28 25 24 21
4 5 3 3 3 5 3 7 19 24 23 19 17 14 11 8 6 7 5 6 9 10 14 17 18 21 24 29 28 24 25 19 24 28 25 26 27 28 28 28 28 29 30 31 33 31 29 28 25
3 3 3 2 4 11 30 12 16 16 17 16 15 12 10 10 9 9 10 12 14 15 16 16 19 25 24 28 35 33 29 32 33 26 23 24 26 29 32 32 31 31 30 31 32 33 31 30 29
Wind_Direction
54 82 70 79 91 109 121 124 120 124 130 145 152 136 119 136 133 140 134 136 136 140 137 138 137 133 122 123 122 118 117 115 113 111 106 98 92 86 82 79 77 79 82 80 79 83 86 88 88
82 74 112 99 112 98 116 129 114 96 98 142 152 162 144 145 151 137 137 149 135 148 146 144 142 139 127 129 131 126 123 118 115 108 100 93 85 80 81 81 81 81 83 87 89 88 87 88 88
103 107 100 86 116 117 127 99 118 96 100 79 140 166 140 130 128 131 132 136 140 150 154 153 150 146 130 131 132 137 128 121 115 108 96 86 80 83 85 85 85 87 89 90 90 91 91 90 90
87 90 91 83 119 111 140 136 112 105 102 88 125 120 121 127 130 129 128 124 128 145 157 160 160 151 144 136 134 138 128 123 116 104 91 84 87 86 88 90 91 91 92 92 93 94 95 95 94
61 86 97 100 123 110 133 144 119 88 34 88 147 128 125 129 130 129 132 130 129 135 151 163 168 164 154 143 139 138 132 125 113 102 93 91 90 93 94 95 92 91 94 95 95 96 96 96 97
93 119 112 100 87 126 128 138 91 74 74 86 145 134 119 128 132 132 127 128 125 122 144 159 166 162 156 148 144 138 135 129 118 102 97 95 98 102 101 97 95 97 96 95 99 101 99 97 96
116 121 111 96 126 122 154 166 335 92 65 86 122 135 127 134 119 119 127 127 121 118 138 160 163 160 158 152 150 146 139 129 115 103 105 103 109 110 105 104 102 102 101 100 100 100 101 100 97
119 113 116 116 114 105 153 125 57 2 76 95 92 159 146 134 119 121 134 128 123 126 138 136 154 157 161 157 152 147 144 126 112 104 110 112 116 115 110 110 110 98 101 103 103 104 103 101 97
111 126 118 137 136 133 155 164 121 66 19 89 69 149 142 141 134 146 143 131 127 125 130 131 147 159 163 162 152 152 140 129 123 113 115 123 123 121 119 120 116 109 102 109 107 107 106 102 99
129 124 114 145 140 108 168 209 159 127 116 114 149 143 150 133 133 137 119 123 127 127 133 134 151 156 157 150 154 148 143 139 121 119 122 131 131 128 126 127 124 121 121 117 114 112 110 107 103
121 103 108 142 120 92 130 148 167 105 155 352 172 157 159 140 141 136 121 117 137 132 131 122 145 151 152 150 151 149 151 133 115 124 132 140 139 133 131 135 135 133 124 119 117 115 114 114 107
110 102 109 114 127 116 162 162 186 221 97 68 141 150 157 143 151 147 97 129 140 138 134 126 140 153 156 163 154 151 151 145 134 132 136 144 149 145 143 146 149 136 131 124 121 118 116 117 110
108 111 138 139 144 116 136 137 145 204 149 142 162 153 153 163 173 145 122 111 137 133 145 142 145 156 157 164 170 167 170 161 157 143 137 141 158 151 149 154 151 143 135 130 130 124 125 120 109
99 151 148 153 162 150 196 137 244 185 201 184 178 164 160 163 147 148 140 133 148 146 166 161 170 172 180 179 177 182 191 183 173 149 142 149 147 165 164 161 151 154 144 138 141 139 135 127 120
50 165 172 155 165 182 181 170 189 131 194 201 180 168 163 160 168 193 195 129 172 175 167 189 181 183 194 200 198 195 199 202 186 163 148 141 143 174 172 162 159 164 156 156 162 156 149 140 128
29 163 178 185 181 178 190 179 197 208 182 179 173 171 164 168 189 202 218 230 228 244 251 206 186 185 197 204 205 202 209 189 212 183 159 167 167 166 174 166 160 170 169 167 170 170 162 160 149
211 98 145 167 167 181 168 181 202 213 206 181 171 167 164 177 198 212 219 234 238 253 268 234 213 193 204 226 224 218 218 218 205 202 182 187 193 177 178 174 170 183 183 178 182 180 179 183 176
249 212 201 169 198 173 185 199 199 207 191 192 150 168 172 182 196 217 234 244 251 258 264 251 228 230 231 217 225 229 228 220 207 208 203 199 208 198 182 183 190 192 198 191 199 194 193 200 209
225 246 220 205 213 178 192 205 212 215 204 221 210 172 182 189 200 214 237 250 252 255 258 263 244 231 225 220 220 226 235 238 226 205 216 214 217 221 193 193 197 204 204 206 212 217 209 211 220
338 57 176 208 207 207 227 232 226 225 245 225 210 209 184 191 203 214 227 245 254 253 250 261 260 236 214 231 234 231 232 235 242 218 215 225 229 226 220 203 207 211 215 210 211 221 223 223 231
353 81 100 194 206 226 251 240 216 231 243 228 231 239 206 218 215 214 232 274 279 258 245 240 258 250 218 222 231 227 220 221 227 229 220 216 226 229 231 223 222 222 220 224 219 217 227 225 229
264 151 201 156 192 243 221 270 256 233 219 220 223 221 208 213 224 245 244 272 328 336 249 230 235 236 233 223 228 237 238 240 242 244 231 220 216 225 235 236 230 233 232 222 228 230 230 235 235
198 252 281 297 290 261 250 266 277 257 205 209 220 218 200 206 206 223 260 270 269 62 158 275 291 298 270 265 265 247 235 234 239 239 236 219 217 218 229 242 243 235 235 236 235 235 239 244 247
276 277 265 266 279 286 304 219 274 233 209 200 209 213 207 202 194 200 212 247 258 297 142 127 260 323 315 317 309 290 275 248 235 239 243 234 220 223 225 233 245 244 237 239 240 238 240 242 248
241 347 359 29 349 232 333 225 316 220 206 201 194 199 209 212 237 233 192 243 242 253 259 274 278 255 254 285 307 311 304 282 266 261 250 244 240 231 232 233 238 244 244 241 246 245 242 241 242
154 55 94 176 217 281 62 49 63 174 187 193 142 145 146 140 142 172 191 226 240 262 267 269 267 272 289 279 270 279 304 299 282 276 266 256 243 240 226 229 236 240 240 238 242 248 247 246 248
195 137 336 282 282 74 84 106 114 122 120 125 125 125 121 125 125 141 161 193 194 224 240 241 250 222 256 265 264 272 274 271 288 286 274 270 269 247 232 231 232 236 239 238 239 244 247 250 249
101 235 213 60 52 73 118 42 135 129 124 122 121 123 127 133 140 151 168 184 197 221 244 271 278 245 249 263 274 280 261 261 257 268 273 273 272 269 255 241 237 234 235 238 239 241 243 247 249
146 84 47 53 32 130 100 48 121 133 143 144 138 141 144 149 161 164 183 208 229 265 293 286 274 277 273 263 266 264 282 263 258 252 260 271 273 270 268 259 250 243 241 241 242 241 244 249 250
113 44 308 47 75 66 110 82 124 135 137 149 151 160 178 195 208 233 243 254 263 271 276 282 282 273 271 270 264 263 259 262 270 251 244 254 268 272 268 268 263 255 246 242 244 247 249 250 253